Centerville, IA

1:45 AM CDT on June 25, 2017 (GMT -0500)
Centerville Municipal

Weather History for KTVK - January, 2014

Change the Weather History Date:

Sunday, January 26, 2014

  Actual Average Record
Temperature  
Mean Temperature 28 °F -  
Max Temperature 48 °F 30 °F 50 °F (2015)
Min Temperature 6 °F 12 °F -9 °F (1961)
Degree Days  
Heating Degree Days 37    
Moisture  
Dew Point 20 °F    
Average Humidity 56    
Maximum Humidity 81    
Minimum Humidity 37    
Precipitation  
Precipitation 0.00 in - - ()
Sea Level Pressure  
Sea Level Pressure 29.67 in    
Wind  
Wind Speed 5 mph (NW)    
Max Wind Speed 30 mph    
Max Gust Speed 46 mph    
Averages and records for this station are not official NWS values.
T = Trace of Precipitation, MM = Missing Value Source: NWS Daily Summary

Daily Weather History Graph

Daily Weather History Graph

Search for Another Location

Airport or City:

Trip Planner

Search our weather history database for the weather conditions in past years. The results will help you decide how hot, cold, wet, or windy it might be!

Date:

Astronomy

Jan. 26, 2014 Rise Set
Actual Time 7:26 AM CST 5:22 PM CST
Civil Twilight 6:57 AM CST 5:51 PM CST
Nautical Twilight 6:24 AM CST 6:24 PM CST
Astronomical Twilight 5:51 AM CST 6:56 PM CST
Moon 3:04 AM CST (1/26) 1:11 PM CST (1/26)
Length of Visible Light 10h 54m
Length of Day
9h 55m
Waning Crescent, 23% of the Moon is Illuminated
Jan 26
Waning Crescent
Jan 30
New
Feb 6
First Quarter
Feb 14
Full
Feb 22
Last Quarter

Hourly Weather History & Observations

Time (CST) Temp. Windchill Dew Point Humidity Pressure Visibility Wind Dir Wind Speed Gust Speed Precip Events Conditions
12:15 AM 28.4 °F - 5.0 °F 37% 29.61 in - North - - N/A   Mostly Cloudy
12:35 AM 28.4 °F - 5.0 °F 37% 29.59 in - North - - N/A   Scattered Clouds
12:55 AM 30.2 °F - 6.8 °F 37% 29.56 in - North - - N/A   Mostly Cloudy
1:15 AM 30.2 °F - 8.6 °F 40% 29.53 in - North - - N/A   Mostly Cloudy
1:35 AM 30.2 °F - 8.6 °F 40% 29.52 in - North - - N/A   Partly Cloudy
1:55 AM 32.0 °F - 14.0 °F 48% 29.51 in - North - - N/A   Clear
2:15 AM 32.0 °F - 15.8 °F 51% 29.51 in - North - - N/A   Clear
2:35 AM 33.8 °F - 19.4 °F 56% 29.49 in - North - - N/A   Partly Cloudy
2:55 AM 33.8 °F - 19.4 °F 56% 29.49 in - North - - N/A   Clear
3:15 AM 32.0 °F - 19.4 °F 60% 29.48 in - North - - N/A   Clear
3:35 AM 33.8 °F - 21.2 °F 60% 29.48 in - North - - N/A   Clear
3:55 AM 35.6 °F - 24.8 °F 65% 29.48 in - North - - N/A   Clear
4:15 AM 37.4 °F - 26.6 °F 65% 29.49 in - North - - N/A   Clear
4:35 AM 39.2 °F - 28.4 °F 65% 29.49 in - North - - N/A   Partly Cloudy
4:55 AM 39.2 °F - 28.4 °F 65% 29.50 in - North - - N/A   Partly Cloudy
5:15 AM 39.2 °F - 28.4 °F 65% 29.51 in - North - - N/A   Partly Cloudy
5:35 AM 37.4 °F - 28.4 °F 70% 29.52 in - North - - N/A   Clear
5:55 AM 37.4 °F - 28.4 °F 70% 29.53 in - North - - N/A   Mostly Cloudy
6:15 AM 37.4 °F - 28.4 °F 70% 29.53 in - North - - N/A   Mostly Cloudy
6:35 AM 35.6 °F - 28.4 °F 75% 29.54 in - North - - N/A   Mostly Cloudy
6:55 AM 35.6 °F - 28.4 °F 75% 29.55 in - North - - N/A   Partly Cloudy
7:10 AM 35.6 °F - 28.4 °F 75% 29.55 in - North - - N/A   Clear
7:35 AM 37.4 °F - 30.2 °F 75% 29.56 in - North - - N/A   Clear
7:55 AM 39.2 °F - 28.4 °F 65% 29.57 in - North - - N/A   Clear
8:15 AM 39.2 °F - 28.4 °F 65% 29.58 in - North - - N/A   Clear
8:35 AM 41.0 °F - 28.4 °F 61% 29.59 in - North - - N/A   Mostly Cloudy
8:55 AM 41.0 °F - 28.4 °F 61% 29.60 in - North - - N/A   Overcast
9:15 AM 41.0 °F - 28.4 °F 61% 29.61 in - North - - N/A   Overcast
9:35 AM 42.8 °F - 28.4 °F 57% 29.61 in - North - - N/A   Overcast
9:55 AM 44.6 °F - 26.6 °F 49% 29.60 in - North - - N/A   Mostly Cloudy
10:15 AM 44.6 °F - 28.4 °F 53% 29.59 in - North - - N/A   Partly Cloudy
10:35 AM 44.6 °F - 28.4 °F 53% 29.59 in - North - - N/A   Clear
10:55 AM 46.4 °F - 28.4 °F 50% 29.60 in - North - - N/A   Clear
11:15 AM 46.4 °F - 28.4 °F 50% 29.59 in - North - - N/A   Clear
11:35 AM 46.4 °F - 28.4 °F 50% 29.59 in - North - - N/A   Clear
11:55 AM 46.4 °F - 28.4 °F 50% 29.59 in - North - - N/A   Clear
12:15 PM 46.4 °F - 28.4 °F 50% 29.58 in - North - - N/A   Clear
12:35 PM 46.4 °F - 28.4 °F 50% 29.58 in - North - - N/A   Partly Cloudy
12:55 PM 48.2 °F - 28.4 °F 46% 29.57 in - North - - N/A   Partly Cloudy
1:15 PM 46.4 °F - 28.4 °F 50% 29.57 in - North - - N/A   Scattered Clouds
1:35 PM 46.4 °F - 28.4 °F 50% 29.55 in - North - - N/A   Scattered Clouds
1:55 PM 46.4 °F - 28.4 °F 50% 29.54 in - North - - N/A   Clear
2:15 PM 48.2 °F - 28.4 °F 46% 29.53 in - North - - N/A   Clear
2:35 PM 46.4 °F - 28.4 °F 50% 29.54 in - North - - N/A   Clear
2:55 PM 46.4 °F - 28.4 °F 50% 29.54 in - North - - N/A   Partly Cloudy
3:15 PM 46.4 °F - 28.4 °F 50% 29.55 in - North - - N/A   Scattered Clouds
3:35 PM 46.4 °F - 28.4 °F 50% 29.55 in - North - - N/A   Scattered Clouds
3:55 PM 46.4 °F - 26.6 °F 46% 29.55 in - North - - N/A   Mostly Cloudy
4:15 PM 46.4 °F - 26.6 °F 46% 29.55 in - North - - N/A   Partly Cloudy
4:35 PM 46.4 °F - 26.6 °F 46% 29.55 in - North - - N/A   Clear
4:55 PM 46.4 °F - 26.6 °F 46% 29.56 in - North - - N/A   Partly Cloudy
5:15 PM 42.8 °F - 35.6 °F 76% 29.62 in - Calm Calm - N/A Rain Rain
5:35 PM 37.4 °F - 32.0 °F 81% 29.67 in - Calm Calm - N/A Rain Light Rain
5:55 PM 32.0 °F - 26.6 °F 80% 29.71 in - Calm Calm - N/A Rain Light Rain
6:15 PM 32.0 °F - 24.8 °F 75% 29.74 in - Calm Calm - N/A   Mostly Cloudy
6:35 PM 30.2 °F - 23.0 °F 75% 29.76 in - Calm Calm - N/A   Overcast
6:55 PM 28.4 °F - 15.8 °F 59% 29.80 in - Calm Calm - N/A   Mostly Cloudy
7:15 PM 26.6 °F - 19.4 °F 74% 29.84 in - Calm Calm - N/A Snow Heavy Snow
7:35 PM 24.8 °F 12.9 °F 12.2 °F 59% 29.88 in - NW 13.8 mph 34.5 mph N/A   Overcast
7:55 PM 23.0 °F 5.4 °F 10.4 °F 59% 29.91 in - NW 29.9 mph 40.3 mph N/A   Overcast
8:15 PM 19.4 °F - 14.0 °F 80% 29.96 in - Calm Calm - N/A Snow Heavy Snow
8:35 PM 17.6 °F -1.0 °F 8.6 °F 68% 29.99 in - NW 26.5 mph 46.0 mph N/A   Mostly Cloudy
8:55 PM 15.8 °F -4.1 °F -0.4 °F 49% 30.01 in - NW 28.8 mph 39.1 mph N/A   Clear
9:15 PM 15.8 °F 0.3 °F -0.4 °F 49% 30.04 in - NW 16.1 mph 33.4 mph N/A   Clear
9:35 PM 14.0 °F -4.3 °F -4.0 °F 45% 30.07 in - NW 21.9 mph 33.4 mph N/A   Clear
9:55 PM 12.2 °F - -7.6 °F 41% 30.08 in - Calm Calm - N/A   Clear
10:15 PM 10.4 °F -4.1 °F -7.6 °F 44% 30.10 in - NW 11.5 mph 33.4 mph N/A   Clear
10:35 PM 10.4 °F - -5.8 °F 48% 30.11 in - Calm Calm - N/A   Clear
10:55 PM 8.6 °F 2.0 °F -5.8 °F 52% 30.13 in - WNW 3.5 mph - N/A   Clear
11:15 PM 8.6 °F -2.6 °F -9.4 °F 44% 30.14 in - NW 6.9 mph - N/A   Clear
11:35 PM 8.6 °F - -9.4 °F 44% 30.16 in - Calm Calm - N/A   Clear
11:55 PM 6.8 °F - -9.4 °F 48% 30.17 in - Calm Calm - N/A   Clear